Content
SEND FEEDBACK

Daily
Averages
Monthly
Summary
Mexico

VALLE DE PALESTINA, COAHUILA


Home > North America > Mexico > Coahuila
Elevation: 1083 feet     Latitude: 29 09N     Longitude: 100 59W

WEATHER
 
SELECT A DAY
Number of Records: 213,604;   Date Range: 1/1/95 - 8/30/14
 
SHARE

PRINT THIS DATA

[ ← Previous Day ]
WEATHER ALMANAC - JANUARY 31, 2013
[ Next Day → ]
[ °C ]   °F
Weather ElementAverageHighLow
Temperature54 °F68 °F (4:53 pm)37.9 °F (2:53 am)
Dewpoint18.5 °F24.1 °F (1:53 am)14 °F (11:53 am)
Humidity28.5 %55 % (2:53 am)13 % (1:53 pm)
Barometer30.21 in30.29 in (10:53 am)30.13 in (4:53 pm)
Wind Speed6.1 mph15 mph (11:53 am)
Wind Gust19.6 mph (11:53 am)
Weather ElementAverage
Visibility10 mi
Wind DirectionESE (106.5 °)

Weather ElementTotal
Precipitation---
Heating Degree Days12.1 (Base 65)
Growing Degree Days3 (Base 50)
Averaged from 23 records on January 31, 2013
WEATHER CONDITIONS BREAKOUT
WIND DIRECTION BREAKOUT
WEATHER BY HOUR - JANUARY 31, 2013
[ °C ]   °F
Local TimeTemperatureDewpointHumidityBarometerVisibilityWind DirectionWind SpeedGust SpeedPrecipitationEventsConditions
1:53 AM39.9 °F24.1 °F53 %30.21 in10.0 miCalmClear
2:53 AM37.9 °F23.0 °F55 %30.21 in10.0 miEast (80°)3.5 mphClear
3:53 AM39.0 °F21.9 °F50 %30.22 in10.0 miEast (90°)5.8 mphClear
4:53 AM39.9 °F19.9 °F45 %30.21 in10.0 miEast (90°)5.8 mphClear
5:53 AM39.9 °F19.9 °F45 %30.22 in10.0 miEast (80°)4.6 mphClear
6:53 AM39.9 °F19.9 °F45 %30.23 in10.0 miEast (90°)8.1 mphClear
7:53 AM42.1 °F19.9 °F41 %30.25 in10.0 miEast (90°)4.6 mphClear
8:53 AM45.0 °F21.0 °F39 %30.26 in10.0 miEast (100°)4.6 mphClear
9:53 AM51.1 °F21.0 °F31 %30.28 in10.0 miESE (110°)3.5 mphClear
10:53 AM59.0 °F18.0 °F20 %30.29 in10.0 miSE (140°)10.4 mphClear
11:53 AM63.0 °F14.0 °F15 %30.27 in10.0 miSSE (150°)15.0 mph19.6 mphClear
12:53 PM64.0 °F14.0 °F14 %30.23 in10.0 miSSE (160°)9.2 mphClear
1:53 PM66.0 °F14.0 °F13 %30.19 in10.0 miSSE (150°)10.4 mphClear
2:53 PM66.9 °F15.1 °F14 %30.16 in10.0 miSE (130°)4.6 mphClear
3:53 PM66.9 °F15.1 °F14 %30.15 in10.0 miSSE (150°)4.6 mphClear
4:53 PM68.0 °F15.1 °F13 %30.13 in10.0 miSE (140°)8.1 mphClear
5:53 PM66.0 °F15.1 °F14 %30.16 in10.0 miEast (90°)4.6 mphClear
6:53 PM64.0 °F16.0 °F16 %30.18 in10.0 miSE (130°)5.8 mphClear
7:53 PM61.0 °F18.0 °F19 %30.19 in10.0 miESE (110°)4.6 mphClear
8:53 PM59.0 °F19.0 °F21 %30.22 in10.0 miEast (100°)4.6 mphClear
9:53 PM57.0 °F19.9 °F24 %30.22 in10.0 miEast (90°)5.8 mphClear
10:53 PM55.0 °F19.9 °F25 %30.23 in10.0 miEast (90°)5.8 mphClear
11:53 PM52.0 °F21.0 °F30 %30.22 in10.0 miEast (90°)5.8 mphClear
Hourly data recorded from KDRT, located miles away from Valle de Palestina, Coahuila







STORIES FROM OUR PARTNERS